Air Force Academy, CO

1:45 AM MDT on June 20, 2019 (GMT -0600)
Usaf Academy

Weather History for KAFF - May, 2019

Change the Weather History Date:

Monday, May 27, 2019

  Actual Average Record
Temperature  
Mean Temperature 53 °F -  
Max Temperature 67 °F 69 °F 86 °F (2006)
Min Temperature 40 °F 43 °F 32 °F (1997)
Degree Days  
Heating Degree Days 12    
Growing Degree Days 3 (Base 50)    
Moisture  
Dew Point 34 °F    
Average Humidity 46    
Maximum Humidity 99    
Minimum Humidity 20    
Precipitation  
Precipitation 0.00 in - - ()
Sea Level Pressure  
Sea Level Pressure 29.62 in    
Wind  
Wind Speed 11 mph (SSE)    
Max Wind Speed 25 mph    
Max Gust Speed 37 mph    
Visibility 10 miles    
Events Rain    
Averages and records for this station are not official NWS values.
T = Trace of Precipitation, MM = Missing Value Source: NWS Daily Summary

Daily Weather History Graph

Daily Weather History Graph

Search for Another Location

Airport or City:

Astronomy

May. 27, 2019 Rise Set
Actual Time 5:38 AM MDT 8:15 PM MDT
Civil Twilight 5:06 AM MDT 8:46 PM MDT
Nautical Twilight 4:28 AM MDT 9:25 PM MDT
Astronomical Twilight 3:44 AM MDT 10:08 PM MDT
Moon 2:19 AM MDT (5/27) 1:34 PM MDT (5/27)
Length of Visible Light 15h 39m
Length of Day
14h 37m
Last Quarter, 40% of the Moon is Illuminated
May 27
Last Quarter
Jun 3
New
Jun 10
First Quarter
Jun 17
Full
Jun 25
Last Quarter

Hourly Weather History & Observations

Time (MDT) Temp. Windchill Dew Point Humidity Pressure Visibility Wind Dir Wind Speed Gust Speed Precip Events Conditions
12:58 AM 51.6 °F - 46.0 °F 81% 29.68 in 10.0 mi NNW 12.7 mph - N/A   Partly Cloudy
1:58 AM 48.7 °F - 45.7 °F 89% 29.67 in 10.0 mi North 12.7 mph - N/A   Clear
2:58 AM 46.8 °F - 45.1 °F 94% 29.66 in 10.0 mi North 5.8 mph - N/A   Clear
3:58 AM 43.0 °F 40.3 °F 42.8 °F 99% 29.70 in 10.0 mi NNW 4.6 mph - N/A   Clear
4:58 AM 41.0 °F 36.4 °F 40.8 °F 99% 29.72 in 10.0 mi NE 6.9 mph - N/A   Clear
5:58 AM 40.3 °F 35.5 °F 40.1 °F 99% 29.73 in 10.0 mi North 6.9 mph - N/A   Clear
6:58 AM 44.1 °F 40.8 °F 41.0 °F 89% 29.74 in 10.0 mi North 5.8 mph - N/A   Clear
7:58 AM 52.9 °F - 42.6 °F 68% 29.71 in 10.0 mi Calm Calm - N/A   Clear
8:58 AM 57.2 °F - 42.6 °F 58% 29.70 in 10.0 mi South 3.5 mph - N/A   Clear
9:58 AM 61.9 °F - 40.8 °F 46% 29.65 in 10.0 mi SE 8.1 mph - N/A   Clear
10:58 AM 63.7 °F - 37.6 °F 38% 29.64 in 10.0 mi SSE 11.5 mph 18.4 mph N/A   Partly Cloudy
11:58 AM 65.8 °F - 25.9 °F 22% 29.60 in 10.0 mi SSE 10.4 mph 19.6 mph N/A   Partly Cloudy
12:03 PM 66.2 °F - 26.6 °F 23% 29.60 in 10.0 mi South 16.1 mph 19.6 mph N/A   Partly Cloudy
12:17 PM 66.2 °F - 28.4 °F 24% 29.60 in 10.0 mi SSE 13.8 mph 23.0 mph N/A   Scattered Clouds
12:33 PM 66.2 °F - 30.2 °F 26% 29.58 in 10.0 mi SE 13.8 mph 20.7 mph N/A   Mostly Cloudy
12:58 PM 64.9 °F - 28.2 °F 25% 29.59 in 10.0 mi SE 17.3 mph 27.6 mph N/A   Mostly Cloudy
1:19 PM 66.2 °F - 28.4 °F 24% 29.56 in 10.0 mi South 18.4 mph 31.1 mph N/A   Mostly Cloudy
1:58 PM 64.6 °F - 30.7 °F 28% 29.59 in 10.0 mi South 17.3 mph - N/A   Mostly Cloudy
2:32 PM 64.4 °F - 26.6 °F 24% 29.61 in 10.0 mi South 25.3 mph 34.5 mph N/A   Mostly Cloudy
2:58 PM 62.2 °F - 29.7 °F 29% 29.61 in 10.0 mi South 25.3 mph 33.4 mph N/A   Mostly Cloudy
3:14 PM 62.6 °F - 32.0 °F 32% 29.64 in 10.0 mi SE 17.3 mph 36.8 mph N/A   Scattered Clouds
3:58 PM 61.2 °F - 34.0 °F 36% 29.61 in 10.0 mi SSE 16.1 mph 23.0 mph N/A   Partly Cloudy
4:58 PM 64.8 °F - 30.9 °F 28% 29.57 in 10.0 mi SE 16.1 mph 19.6 mph N/A   Scattered Clouds
4:59 PM 64.4 °F - 32.0 °F 30% 29.58 in 10.0 mi ESE 17.3 mph 23.0 mph N/A   Scattered Clouds
5:15 PM 62.6 °F - 30.2 °F 30% 29.58 in 10.0 mi South 16.1 mph 25.3 mph N/A   Mostly Cloudy
5:51 PM 62.6 °F - 30.2 °F 30% 29.60 in 10.0 mi West 16.1 mph 23.0 mph N/A   Overcast
5:53 PM 62.6 °F - 28.4 °F 27% 29.60 in 10.0 mi West 15.0 mph 23.0 mph N/A Rain Light Rain
5:58 PM 61.3 °F - 27.9 °F 28% 29.62 in 10.0 mi West 5.8 mph 23.0 mph 0.00 in Rain Light Rain
6:00 PM 60.8 °F - 26.6 °F 27% 29.62 in 10.0 mi SW 8.1 mph 23.0 mph N/A   Mostly Cloudy
6:58 PM 61.0 °F - 27.7 °F 28% 29.59 in 10.0 mi Calm Calm - 0.00 in   Scattered Clouds
7:58 PM 59.2 °F - 24.3 °F 26% 29.58 in 10.0 mi NW 5.8 mph - N/A   Scattered Clouds
8:58 PM 60.3 °F - 19.0 °F 20% 29.55 in 10.0 mi WSW 4.6 mph - N/A   Mostly Cloudy
9:58 PM 57.0 °F - 25.0 °F 29% 29.57 in 10.0 mi NE 5.8 mph - N/A   Overcast
10:58 PM 51.1 °F - 43.7 °F 76% 29.62 in 10.0 mi NNW 16.1 mph 26.5 mph N/A   Overcast
11:58 PM 48.0 °F - 42.8 °F 82% 29.60 in 10.0 mi North 13.8 mph 24.2 mph N/A   Scattered Clouds